Location: Bergen
(60.3910°N, 5.3250°E)
Time: 01:09:06
(UTC+01:00)

ISS - Visible Passes

Search period start: 23 March 2019 00:00
Search period end: 02 April 2019 01:00
Orbit: 406 x 411 km, 51.6° (Epoch: 23 March)

Date Brightness Start Highest point End Pass type
(mag) Time Alt. Az. Time Alt. Az. Time Alt. Az.
24 Mar -1.4 21:08:48 10° SSW 21:09:24 12° S 21:09:24 12° S visible
25 Mar -1.6 20:18:29 10° S 20:19:55 12° SSE 20:20:42 12° SE visible
25 Mar -1.1 21:53:15 10° SW 21:53:27 11° SW 21:53:27 11° SW visible
26 Mar -2.0 21:02:28 10° SW 21:04:36 17° S 21:04:36 17° S visible
27 Mar -1.8 20:11:48 10° SSW 20:13:52 16° SSE 20:15:40 11° SE visible
27 Mar -1.5 21:47:18 10° SW 21:48:25 15° SSW 21:48:25 15° SSW visible
28 Mar -2.1 20:56:21 10° SW 20:58:43 18° S 20:59:24 17° SSE visible
29 Mar -1.9 20:05:29 10° SW 20:07:50 18° S 20:10:09 10° SE visible
29 Mar -1.6 21:41:31 10° SW 21:43:04 15° SSW 21:43:04 15° SSW visible
30 Mar -1.8 20:50:24 10° SW 20:52:40 17° S 20:53:57 14° SSE visible
31 Mar -1.8 20:59:23 10° SW 21:01:44 18° S 21:04:06 10° SE visible
31 Mar -1.4 22:36:04 10° SW 22:37:26 12° SSW 22:37:33 12° SSW visible
01 Apr -1.5 21:44:38 10° SW 21:46:32 14° SSW 21:48:25 10° SSE visible
